RH
18 18 18 16 14 15 14 16 17 16 15 13 11 10 12 16 17 14 13 14 14 16 22 27 19 11 6 8 8 6 4 3 4 4 4 4 5 5 8 9 10 8 15 16 8 11 20 24 36
18 18 18 19 19 17 17 19 18 16 15 15 15 14 14 15 14 15 15 15 14 15 18 21 22 16 14 6 6 6 5 4 4 4 4 4 4 5 8 9 9 8 13 14 11 11 10 17 23
22 20 18 17 18 22 27 23 20 18 16 15 14 15 16 17 17 16 16 16 16 17 17 18 26 26 18 10 7 6 6 5 4 4 4 4 5 5 7 8 9 9 10 14 6 5 6 13 22
24 21 18 17 18 22 35 34 28 22 19 17 15 15 14 15 17 18 17 17 17 18 19 21 25 26 23 13 8 7 7 7 6 4 4 4 5 5 6 8 9 8 6 6 6 3 3 7 19
22 18 15 18 21 25 34 26 28 30 26 22 18 17 15 15 16 17 18 18 19 21 24 26 23 24 20 15 11 10 9 8 7 6 5 4 5 5 5 8 9 11 7 7 7 4 3 5 12
20 20 17 20 22 22 27 26 24 25 29 30 25 22 21 19 18 19 18 19 20 21 20 16 17 19 16 12 10 10 10 9 7 6 5 5 5 5 5 7 8 6 8 8 6 3 3 5 8
21 20 20 22 24 23 28 27 30 25 24 30 29 29 29 28 24 21 19 18 18 17 16 16 16 16 15 14 12 11 11 10 8 7 6 6 6 6 5 7 7 6 8 7 4 3 3 14 15
25 21 20 26 30 28 33 33 30 25 27 28 22 20 28 32 36 34 30 25 21 19 17 16 16 16 18 19 16 14 14 13 11 10 9 8 7 6 5 6 7 7 8 7 4 3 7 22 28
29 23 22 31 32 32 31 27 27 24 22 24 24 18 19 24 34 39 40 39 37 32 38 34 25 27 26 25 21 19 18 16 13 12 11 9 8 7 5 6 6 7 7 6 4 3 5 19 35
33 28 27 32 33 27 31 30 29 25 21 24 27 21 17 19 24 35 44 46 48 48 49 52 46 41 36 26 28 31 29 23 16 13 12 10 8 7 6 6 6 7 6 5 4 19 15 46 43
33 30 35 32 41 32 22 28 30 29 27 28 30 34 29 22 23 29 36 51 54 56 63 67 60 49 44 29 36 36 35 30 22 14 13 12 11 9 7 6 6 7 6 5 4 4 11 14 33
38 36 38 42 44 40 28 25 30 31 30 32 34 37 33 33 29 33 40 54 58 63 64 62 74 64 54 35 40 38 37 32 30 30 20 16 13 10 8 6 7 7 6 5 4 5 10 20 41
50 45 44 44 43 43 40 34 30 30 32 33 35 38 42 38 40 36 41 45 54 57 62 73 67 77 65 54 51 45 40 34 32 34 20 19 20 16 10 7 8 8 7 5 4 14 18 31 44
62 55 50 47 47 46 42 40 34 30 34 26 28 30 37 48 56 50 45 44 53 55 53 85 80 80 84 76 60 57 46 42 37 35 22 24 22 20 12 8 8 9 8 5 6 14 30 53 62
67 64 56 53 52 47 46 38 38 36 33 33 30 30 31 32 39 51 45 36 42 37 42 53 77 67 87 84 79 70 53 51 55 44 57 28 24 23 20 8 9 10 8 6 11 21 37 51 54
66 64 60 56 54 50 43 34 36 35 32 30 31 31 30 32 32 35 36 37 45 41 50 60 52 42 57 86 90 89 68 62 59 43 68 45 21 23 20 9 10 11 8 7 9 27 30 38 43
65 62 60 57 55 50 45 37 35 36 35 32 29 31 37 42 49 50 51 51 62 70 73 67 59 42 43 55 83 99 96 78 65 66 60 48 21 23 21 12 12 11 9 8 16 35 22 21 42
67 62 58 56 54 50 45 39 36 33 30 29 29 30 32 34 37 44 37 37 44 55 62 73 66 45 61 68 67 90 94 97 71 63 74 91 25 26 23 16 14 15 10 11 27 36 17 17 18
60 58 56 57 52 48 44 40 33 30 27 27 27 23 18 16 15 16 17 23 30 34 40 47 48 47 57 66 77 75 91 92 93 70 51 82 33 25 20 20 23 15 11 14 39 32 17 17 15
50 52 53 48 40 39 33 29 25 28 27 25 22 18 16 14 12 12 13 13 17 20 25 28 24 28 36 49 69 78 89 91 81 66 64 74 61 30 29 31 22 16 14 17 44 34 17 16 13
59 53 48 42 35 32 29 24 24 22 21 20 19 16 15 13 12 10 9 9 10 14 28 32 32 30 32 49 70 69 79 80 66 73 70 47 53 48 55 57 28 17 15 21 50 39 22 16 14
58 45 40 36 32 30 25 23 21 20 19 18 17 16 15 13 12 12 9 8 7 7 10 22 34 28 34 61 52 65 79 76 89 71 78 36 63 92 99 89 31 15 14 28 55 36 24 17 15
51 38 31 30 27 26 25 24 21 20 20 19 17 14 11 10 8 8 7 6 6 6 7 24 32 35 46 64 73 76 72 66 59 44 85 49 89 96 99 91 25 12 16 42 55 33 22 16 12
34 32 26 24 26 34 27 24 19 18 17 14 11 8 7 6 5 5 5 5 5 9 20 35 46 60 70 85 84 56 39 40 44 22 52 72 80 97 100 94 22 12 21 38 55 35 19 16 13
65 66 34 29 27 27 23 20 19 16 12 9 8 6 6 7 7 8 17 32 49 48 76 71 77 87 84 91 49 44 38 32 60 67 65 85 79 98 100 60 20 12 25 34 59 35 20 17 11
52 33 20 23 24 22 18 16 12 10 8 7 5 5 8 16 20 22 31 70 80 96 97 96 99 90 92 87 87 68 56 53 37 30 32 77 100 98 97 55 47 14 28 42 61 29 21 16 12
24 20 18 17 15 13 12 9 8 8 8 7 8 12 27 23 35 46 50 85 84 91 91 97 100 98 100 96 81 60 89 76 61 56 51 95 86 79 75 62 39 21 37 51 63 28 22 16 13
19 16 12 10 9 7 5 5 5 5 7 8 21 26 39 69 74 96 83 83 93 92 92 99 100 98 96 91 72 56 54 87 84 61 60 90 91 97 80 74 48 34 38 59 56 25 21 19 13
8 7 6 5 4 4 4 4 4 13 13 19 27 34 46 81 99 100 100 95 91 97 86 91 100 98 98 97 70 93 84 80 64 73 80 85 94 97 99 91 74 39 30 56 50 25 22 26 16
4 4 4 4 4 4 4 3 4 7 9 43 53 77 93 97 100 99 99 100 100 99 63 88 92 97 98 97 93 95 96 81 83 93 65 96 98 96 97 96 76 54 40 59 47 26 23 26 19
Wind_Speed
22 24 25 27 29 23 15 12 18 21 27 26 27 28 31 32 31 30 29 30 29 29 28 32 30 22 17 18 19 20 20 19 19 19 19 18 17 17 19 21 22 21 21 20 21 20 18 18 20
22 23 25 27 26 21 17 16 22 26 24 24 27 31 32 32 32 32 30 30 32 32 31 35 35 32 28 21 22 24 24 22 21 21 21 21 20 19 19 20 20 21 21 21 21 21 19 19 20
25 26 28 28 18 15 16 21 25 27 26 25 30 31 31 32 33 31 30 30 31 32 31 31 36 34 34 31 26 24 25 27 26 25 23 22 22 22 21 20 21 23 23 23 24 24 22 20 20
30 32 33 30 17 15 17 22 24 28 32 33 33 32 32 32 31 31 32 31 32 31 30 31 33 36 34 33 31 29 28 30 30 29 26 25 25 24 24 22 23 23 23 24 26 26 24 18 18
32 29 33 28 21 19 20 22 27 27 33 34 34 33 34 33 31 32 33 33 33 34 34 32 31 31 29 31 31 30 28 31 32 33 29 28 27 26 26 25 24 24 24 25 28 26 24 19 17
32 33 34 28 21 22 24 26 29 29 31 32 37 37 34 35 34 36 35 36 37 35 35 32 32 33 33 30 29 29 28 29 32 33 30 29 28 28 28 27 27 26 25 27 28 27 26 20 19
33 35 35 29 22 23 26 30 33 31 32 31 36 37 37 37 37 38 39 38 40 39 35 33 32 33 28 28 28 28 28 28 31 32 30 30 30 30 29 29 29 27 27 29 28 28 25 21 21
35 39 38 32 28 27 29 31 35 36 34 33 36 37 38 40 38 40 40 41 41 39 38 36 33 32 30 29 30 29 28 29 32 33 33 32 33 32 31 30 29 28 29 30 30 29 25 23 22
39 42 41 36 34 33 34 36 35 39 37 38 38 37 37 39 41 41 41 41 42 41 36 35 38 32 31 28 31 29 28 29 30 32 33 34 34 33 32 31 30 30 31 31 30 31 29 25 24
43 45 43 43 41 42 38 40 38 40 41 38 38 39 39 40 41 43 43 43 42 43 40 35 33 33 32 30 28 29 28 28 29 30 32 35 33 34 34 31 30 31 32 31 32 32 30 25 26
48 48 45 46 45 44 42 38 41 41 40 39 40 42 42 41 42 44 45 46 47 47 44 40 34 33 31 30 30 28 30 30 29 29 31 36 35 34 35 31 29 31 32 31 33 32 30 28 26
51 49 47 49 50 46 45 40 38 38 38 38 38 40 45 45 46 47 48 50 50 50 49 47 38 33 32 31 32 32 32 32 31 32 33 36 36 34 33 30 28 30 31 31 32 31 30 27 25
51 50 51 51 50 49 47 47 45 42 39 37 39 41 43 48 50 50 50 52 54 50 56 50 47 38 34 36 36 36 36 36 34 33 35 35 35 33 33 30 28 29 30 30 31 30 27 27 24
52 53 54 54 54 53 53 52 54 49 41 45 43 43 45 48 51 51 51 52 55 54 53 52 50 48 38 39 41 40 41 39 37 34 36 34 35 34 32 30 30 29 29 30 30 28 28 27 24
56 56 55 55 54 56 55 56 54 52 50 44 45 46 47 50 51 52 52 53 54 54 51 51 51 53 48 42 42 43 43 43 40 38 38 38 36 36 33 31 31 28 28 30 29 28 29 26 26
54 55 54 53 54 54 58 57 52 53 52 50 46 46 47 48 49 51 55 56 57 55 53 54 53 53 55 47 44 45 44 45 44 40 40 38 38 36 35 34 31 27 27 30 28 29 27 26 24
52 50 52 54 52 52 54 54 52 50 47 47 48 47 47 47 48 48 50 53 57 58 58 57 54 53 54 51 44 48 48 48 47 42 41 37 39 37 36 34 28 27 26 29 26 29 25 26 21
49 52 52 50 48 49 48 50 52 51 49 47 45 45 45 46 47 49 53 55 56 58 58 57 56 55 56 55 49 50 49 48 45 42 40 40 41 39 35 34 27 25 25 28 26 27 24 23 22
49 49 48 46 46 49 47 49 47 45 45 41 39 41 44 49 49 49 50 52 54 55 55 54 55 57 55 54 55 52 48 45 45 45 42 42 42 39 33 33 27 24 25 27 27 24 23 23 24
49 46 42 42 42 49 46 43 41 37 36 39 40 42 48 49 49 49 48 48 49 50 52 53 55 56 55 54 53 52 48 46 44 48 46 44 41 37 35 31 28 24 26 27 27 23 23 24 26
43 43 42 43 41 42 42 41 34 35 36 37 41 48 51 51 51 50 50 51 52 51 51 53 55 56 55 54 56 52 51 50 50 52 47 45 38 38 36 32 29 25 27 26 25 23 23 26 27
42 41 40 39 40 38 37 41 34 33 36 39 45 51 53 53 54 53 53 54 55 56 55 58 58 58 55 56 57 54 50 48 47 48 45 46 39 40 39 37 30 26 27 26 24 25 24 27 30
35 35 35 37 38 37 41 41 31 39 36 41 49 52 55 56 54 57 59 59 61 59 57 58 60 60 57 56 57 56 51 46 47 48 45 47 39 38 42 37 31 27 28 24 24 27 26 28 32
34 35 36 37 39 40 40 44 33 36 40 42 46 50 52 53 54 56 56 57 57 54 53 53 54 57 56 54 53 52 48 50 49 48 47 47 43 45 42 37 34 28 27 25 25 28 30 28 34
35 36 39 40 40 37 39 44 37 37 38 40 44 50 53 52 50 50 50 46 42 46 43 45 48 49 51 45 48 47 41 46 48 45 49 48 45 46 39 35 36 31 28 26 27 28 31 27 32
37 37 38 42 42 40 40 43 40 39 38 41 44 47 48 48 41 42 41 35 36 30 33 30 36 45 42 48 54 47 42 34 40 44 51 50 48 48 40 42 39 32 31 26 27 29 30 28 32
37 37 40 42 43 44 41 42 41 41 41 40 43 43 44 37 33 35 34 34 34 27 29 30 38 37 38 40 39 42 43 50 42 49 57 54 53 45 44 44 39 33 33 29 27 28 31 29 33
40 41 41 43 43 46 43 46 47 45 41 38 38 37 37 34 29 22 22 26 26 26 24 23 29 28 41 43 44 40 45 43 44 49 52 51 47 44 45 43 40 35 36 30 27 29 32 30 32
39 42 44 44 45 48 49 49 48 40 38 37 34 33 33 32 26 21 21 16 22 22 19 23 31 28 24 36 49 39 41 41 39 47 53 52 46 45 44 42 42 38 37 32 28 30 32 29 32
40 41 44 47 48 50 51 50 44 42 39 28 25 21 25 25 22 16 18 15 24 22 20 23 22 22 27 30 46 44 45 46 45 43 50 51 48 48 45 43 43 38 39 31 31 31 31 28 28
Wind_Direction
282 282 281 279 278 283 293 286 268 255 255 256 262 264 262 261 264 269 275 274 275 269 274 278 280 274 264 269 277 282 280 278 279 285 286 293 292 293 301 311 316 312 310 309 310 311 314 307 300
286 288 284 282 287 299 289 272 262 261 264 268 263 259 258 263 269 271 274 280 283 279 278 277 277 282 287 278 280 281 285 282 276 278 283 285 287 286 293 302 306 305 306 304 306 305 305 299 295
290 289 287 284 298 308 289 266 267 271 269 263 261 263 264 259 261 267 270 274 278 279 283 285 284 284 285 284 281 282 288 287 282 280 281 284 285 287 290 295 299 298 300 302 304 308 307 299 293
290 287 282 285 290 293 291 277 271 267 268 263 263 266 265 268 266 265 268 271 274 276 279 283 282 283 282 282 281 286 287 287 284 280 280 282 282 283 285 289 295 294 298 302 305 307 306 300 291
285 286 282 288 286 277 274 274 271 267 264 269 272 267 271 272 270 267 269 270 270 272 273 272 272 276 275 281 284 285 284 283 282 279 278 279 279 279 278 282 286 290 293 298 303 303 303 300 282
280 284 280 291 288 272 266 267 269 270 269 268 270 273 271 272 267 264 264 264 265 265 267 268 267 269 276 276 276 281 284 283 281 280 278 279 281 278 275 280 282 286 294 299 302 298 298 297 284
277 276 276 282 298 281 271 267 264 266 271 265 269 270 270 268 271 271 268 264 262 263 262 262 266 267 269 271 272 275 279 281 281 281 280 283 283 276 272 275 280 284 291 296 298 295 294 296 282
277 270 269 281 293 286 274 262 262 262 259 258 261 264 266 269 268 269 271 273 271 271 272 268 262 262 267 273 270 270 273 273 274 278 280 281 281 277 272 274 279 282 289 295 295 295 293 289 280
277 275 274 284 287 281 274 269 264 266 261 254 252 259 263 263 266 268 271 273 277 276 280 282 278 270 268 273 270 270 269 270 272 274 277 278 277 274 272 273 277 281 287 293 295 293 291 285 277
278 277 277 281 286 285 277 276 269 269 271 266 259 260 259 261 263 263 266 269 271 275 276 275 276 277 269 265 258 263 264 266 268 271 274 275 275 275 272 272 275 280 287 293 294 292 292 283 278
277 278 275 279 283 282 283 279 273 273 273 269 264 265 265 262 261 262 265 266 269 271 273 274 268 268 272 260 256 263 265 266 267 270 270 273 272 271 270 271 274 281 288 292 293 294 290 287 282
275 274 276 280 279 279 282 282 279 276 270 266 266 261 265 264 262 261 260 261 265 270 273 274 270 261 263 258 254 264 265 265 266 271 269 271 273 271 269 269 274 283 288 292 295 295 291 285 281
273 270 270 274 274 276 278 280 280 268 267 261 256 258 257 259 257 257 257 259 261 263 268 269 267 261 251 255 259 260 263 265 265 268 263 266 269 271 269 269 274 283 290 294 296 292 284 281 278
273 272 272 272 273 273 273 274 275 278 260 262 255 249 251 253 256 257 258 259 260 261 261 259 267 266 251 255 256 260 261 262 268 267 261 259 262 268 267 269 273 283 291 294 292 286 281 278 271
276 272 272 273 272 272 272 273 274 273 272 264 262 261 256 254 254 255 257 256 258 260 262 264 264 266 265 256 255 259 262 263 263 265 264 261 260 263 266 265 271 283 291 295 290 281 282 281 288
274 273 272 272 271 270 271 272 272 272 272 273 270 264 260 258 257 258 259 259 261 262 262 262 264 266 267 258 255 254 256 262 262 260 261 260 256 258 263 265 270 283 292 295 287 279 286 282 288
272 273 271 268 267 269 272 273 274 273 269 266 265 264 262 257 254 251 251 253 256 257 258 258 259 260 263 262 252 256 249 250 256 255 258 255 252 254 258 262 270 282 293 290 282 279 281 280 286
269 269 272 273 271 268 267 271 270 267 267 265 264 262 261 258 254 252 252 249 247 248 249 251 254 254 259 263 254 249 250 249 252 254 252 251 249 250 254 261 270 281 290 287 279 280 277 277 276
272 273 273 271 268 267 265 267 264 267 270 269 264 261 260 257 256 255 254 253 254 255 253 249 250 253 255 256 258 254 250 248 248 250 247 249 247 248 251 257 268 278 287 283 273 279 273 274 273
273 273 270 267 265 268 266 265 265 268 267 267 267 265 261 258 257 257 259 258 256 255 255 253 252 250 251 250 253 250 249 242 242 244 243 243 242 242 246 255 262 272 281 277 269 277 271 271 270
268 268 266 265 263 268 268 261 265 269 272 271 269 268 267 267 266 265 263 258 257 257 259 257 257 257 251 251 251 247 243 245 238 241 241 242 239 240 242 256 257 266 276 270 268 275 275 270 268
265 265 265 267 269 272 272 269 270 275 272 270 271 269 271 272 273 270 265 265 262 258 256 256 255 254 249 245 249 247 243 239 244 242 243 242 235 234 242 245 252 262 270 262 271 274 273 273 267
263 262 267 269 272 272 275 277 268 275 269 270 271 274 275 274 272 269 268 265 262 258 252 251 249 251 249 244 243 244 241 232 238 237 236 238 230 229 241 244 250 259 264 259 269 273 274 277 273
261 262 264 265 268 270 272 279 277 272 273 275 275 277 280 281 277 272 267 262 259 257 256 251 250 250 242 237 237 238 238 232 230 232 233 232 224 228 239 237 245 253 259 260 267 273 273 275 280
263 265 269 269 269 271 274 277 280 279 279 281 283 285 284 282 277 269 261 262 261 255 253 248 245 237 232 228 229 230 225 228 230 230 233 227 226 230 238 238 243 249 255 259 268 269 269 279 276
267 267 269 271 271 271 271 276 282 285 284 283 285 284 285 283 277 271 269 266 260 253 248 251 238 232 232 223 229 224 218 227 226 226 229 223 228 231 232 234 246 248 252 257 264 265 266 273 268
265 268 269 271 274 277 283 284 284 283 281 280 279 280 282 282 274 272 270 265 262 253 244 241 241 225 229 210 219 225 215 225 221 226 228 219 224 226 229 233 243 245 251 256 262 264 267 271 264
265 268 271 274 277 278 282 281 280 281 282 279 275 276 277 284 278 288 269 258 238 236 235 237 226 229 224 214 219 217 216 218 221 226 227 230 229 226 229 235 241 242 250 254 259 262 269 270 263
274 277 277 277 276 275 276 274 277 278 274 273 273 275 279 281 282 273 271 240 225 218 233 242 238 241 240 218 211 213 218 223 223 228 232 230 227 224 227 234 239 241 251 255 258 259 268 267 264
277 277 276 275 276 274 274 273 272 269 266 266 265 279 288 269 292 269 230 222 208 215 235 250 238 240 233 218 211 224 219 223 223 225 230 236 228 228 226 230 240 244 249 255 257 259 269 268 266